Weather Roundup
Issued by NWS Chicago, IL

Home | Current Version | Previous Version | Graphics & Text | Print | Product List | Glossary On
Versions: 1 2 3 4 5 6 7 8 9 10 11 12 13 14 15 16 17 18 19 20 21 22 23 24 25 26 27 28 29 30 31 32 33 34 35 36 37 38 39 40 41 42 43 44 45 46 47 48 49 50
000
NZUS59 KLOT 280604
HRRLOT

CHICAGO AREA WEATHER ROUNDUP
NATIONAL WEATHER SERVICE CHICAGO/ROMEOVILLE IL
100 AM CDT SAT MAY 28 2016

NOTE: "FAIR" INDICATES FEW OR NO CLOUDS BELOW 12,000 FEET WITH NO
SIGNIFICANT WEATHER AND/OR OBSTRUCTIONS TO VISIBILITY.

* THESE STATIONS ARE NOT UNDER NWS QUALITY CONTROL. THEY ALSO MAY NOT
  REPORT WEATHER SUCH AS PRECIPITATION OR FOG.

ILZ005-006-012>014-019>023-280700-
NORTHEAST ILLINOIS

CITY           SKY/WX    TMP DP  RH WIND       PRES   REMARKS
OHARE          CLOUDY    69  65  86 S10       29.86F
6HR MIN TEMP:  68; 6HR MAX TEMP:  78; 6HR PCP:  0.02;

MIDWAY         CLOUDY    71  64  78 S9        29.86F
6HR MIN TEMP:  71; 6HR MAX TEMP:  79; 6HR PCP:  0.08;

AURORA         CLOUDY    70  65  84 S12       29.85F
6HR MIN TEMP:  70; 6HR MAX TEMP:  76; 6HR PCP: TRACE;

LANSING*       CLOUDY    69  64  82 S9        29.89S
WAUKEGAN       PTCLDY    68  66  93 S12       29.85F
6HR MIN TEMP:  65; 6HR MAX TEMP:  71; 6HR PCP:  0.03;

DUPAGE AIRPORT CLOUDY    69  63  81 S12       29.85F
6HR MIN TEMP:  68; 6HR MAX TEMP:  74; 6HR PCP:  0.01;

WHEELING       CLOUDY    69  65  86 S12       29.87F
6HR MIN TEMP:  69; 6HR MAX TEMP:  77; 6HR PCP:  0.03;

$$

WIZ051-052-058>065-066-070>072-280700-
SOUTHEAST WISCONSIN

CITY           SKY/WX    TMP DP  RH WIND       PRES   REMARKS
MILWAUKEE      CLOUDY    70  65  84 S12G21    29.84S
6HR MIN TEMP:  67; 6HR MAX TEMP:  70; 6HR PCP: TRACE;

KENOSHA*       CLOUDY    69  65  86 S10       29.86S
RACINE*        MOCLDY    67  64  90 S12       29.87F
$$

INZ001>003-010>013-019-020-280700-
NORTHWEST INDIANA

CITY           SKY/WX    TMP DP  RH WIND       PRES   REMARKS
GARY*          NOT AVBL
MICHIGAN CITY* NOT AVBL
RENSSELAER*    NOT AVBL
VALPARAISO     CLOUDY    68  64  87 SE6       29.92F
$$

LMZ740>746-280700-
SOUTHERN LAKE MICHIGAN

STATION/POSITION TIME  SKY/WX   TEMP WIND        PRES    VSBY
                                AIR  DIR/SP/G
                 (UTC)          (F)  (DEG/KT/KT) (MB)    (MI)
HARRISON CRIB    0520            69  190/ 16/ 16   N/A
BURNHAM HARBOR   0600            70  200/  6/ 13   N/A
CALUMET HARBOR   0500            71  180/  9/ 14 1011.4F
BURNS HARBOR     0501            70  180/  9/ 22 1012.9F
MICHIGAN CITY    0500            71  160/ 11/ 13   N/A
$$

ABBREVIATIONS USED IN REMARKS
   TC - TEMPERATURE IN CELSIUS
  WCI - WIND CHILL INDEX
   HX - HEAT INDEX
  VSB - VISIBILITY
$$




USA.gov is the U.S. government's official web portal to all federal, state and local government web resources and services.